Location: Saint-Gaudens
(43.1069°N, 0.7238°E)
Time: 04:43:11
(UTC+01:00)

ISS - Visible Passes

Search period start: 26 February 2020 00:00
Search period end: 07 March 2020 00:00
Orbit: 415 x 423 km, 51.6° (Epoch: 27 February)

Date Brightness Start Highest point End Pass type
(mag) Time Alt. Az. Time Alt. Az. Time Alt. Az.
26 Feb -1.2 05:11:56 22° E 05:11:56 22° E 05:13:29 10° ENE visible
26 Feb -3.0 06:44:54 17° W 06:47:09 37° NNW 06:50:21 10° NE visible
27 Feb -3.6 05:59:19 54° NW 05:59:26 54° NNW 06:02:46 10° NE visible
28 Feb -1.5 05:13:39 24° NE 05:13:39 24° NE 05:15:09 10° NE visible
28 Feb -2.2 06:46:36 12° WNW 06:48:57 23° NNW 06:51:45 10° NE visible
29 Feb -2.5 06:00:51 28° NNW 06:01:07 29° NNW 06:04:08 10° NE visible
01 Mar -1.5 05:15:03 22° NNE 05:15:03 22° NNE 05:16:31 10° NE visible
01 Mar -1.7 06:48:18 10° NW 06:50:48 19° N 06:53:19 10° NE visible
02 Mar -1.9 06:02:09 19° NNW 06:02:55 20° N 06:05:32 10° NE visible
03 Mar -1.4 05:16:16 19° NNE 05:16:16 19° NNE 05:17:50 10° NE visible
03 Mar -1.7 06:50:05 10° NW 06:52:39 20° N 06:55:13 10° NE visible
04 Mar -1.6 06:03:19 15° NNW 06:04:44 19° N 06:07:14 10° NE visible
05 Mar -1.4 05:17:24 18° N 05:17:24 18° N 05:19:19 10° NE visible
05 Mar -2.0 06:51:30 10° NW 06:54:24 26° NNE 06:57:18 10° ENE visible
06 Mar -0.2 04:31:30 10° NE 04:31:30 10° NE 04:31:30 10° NE visible
06 Mar -1.7 06:04:26 13° NW 06:06:30 22° NNE 06:09:12 10° ENE visible
